Regional Weather Roundup
Issued by NWS Sioux Falls, SD

Home | Current Version | Previous Version | Graphics & Text | Print | Product List | Glossary On
Versions: 1 2 3 4 5 6 7 8 9 10 11 12 13 14 15 16 17 18 19 20 21 22 23 24 25 26 27 28 29 30 31 32 33 34 35 36 37 38 39 40 41 42 43 44 45 46 47 48 49 50
219
ASUS43 KFSD 190002
RWRFSD

WEATHER ROUNDUP FOR SE SOUTH DAKOTA/SW MINNESOTA/NW IOWA
NATIONAL WEATHER SERVICE SIOUX FALLS SD
700 PM CDT FRI AUG 18 2017

NOTE: "FAIR" INDICATES FEW OR NO CLOUDS BELOW 12,000 FEET WITH NO
SIGNIFICANT WEATHER AND OR OBSTRUCTIONS TO VISIBILITY.


SDZ038>040-050-052>070-190100-
SOUTHEAST SOUTH DAKOTA

CITY           SKY/WX    TMP DP  RH WIND       PRES   REMARKS
BROOKINGS      CLOUDY    71  60  68 NW15      29.91R
CHAMBERLAIN    SUNNY     80  61  53 N6        29.96R
6HR MIN TEMP:  80; 6HR MAX TEMP:  84;

HURON          SUNNY     74  59  59 N10       29.93R
6HR MIN TEMP:  74; 6HR MAX TEMP:  80;

MADISON        FAIR      72  63  73 NW17G24   29.91S
MITCHELL       SUNNY     75  60  59 NW12      29.94R
6HR MIN TEMP:  75; 6HR MAX TEMP:  82;

SIOUX FALLS    PTSUNNY   77  60  55 NW16G25   29.88R
6HR MIN TEMP:  77; 6HR MAX TEMP:  81;

WINNER         FAIR      83  54  36 N8        29.97S
YANKTON        SUNNY     80  65  59 NW9       29.91R
$$

MNZ071-072-080-081-089-090-097-098-190100-
SOUTHWEST MINNESOTA

CITY           SKY/WX    TMP DP  RH WIND       PRES   REMARKS
FAIRMONT       MOSUNNY   71  63  75 SE5       29.91S
JACKSON        CLOUDY    72  63  73 CALM      29.90S THUNDER
MARSHALL       TSTM      61  60  97 S8        29.89R
6HR MIN TEMP:  60; 6HR MAX TEMP:  79;

MONTEVIDEO     PTSUNNY   63  61  94 N6        29.88S
PIPESTONE      MOSUNNY   77  61  57 N16G26    29.88R
REDWOOD FALLS  LGT RAIN  66  59  78 SE17      29.86F
TRACY          TSTM      62  58  87 W7        29.89R
WINDOM         CLOUDY    72  63  73 SE6         N/A  THUNDER
WORTHINGTON    PTSUNNY   73  64  73 S8        29.88F
$$

IAZ001>003-012>014-020>022-031-032-NEZ013-014-SDZ071-190100-
NORTHWEST IOWA

CITY           SKY/WX    TMP DP  RH WIND       PRES   REMARKS
CHEROKEE       MOSUNNY   78  66  64 SE5       29.89S
DENISON        SUNNY     79  66  65 CALM      29.91R
ESTHERVILLE    MOSUNNY   72  65  78 SE5       29.90R
LE MARS        SUNNY     81  66  61 SW5       29.88S
ORANGE CITY    SUNNY     79  68  69 W6        29.89S
SHELDON        MOSUNNY   75  64  69 S7        29.87F
SIOUX CITY     SUNNY     82  69  64 W5        29.88S
6HR MIN TEMP:  79; 6HR MAX TEMP:  83;

SPENCER        MOSUNNY   76  62  62 S7        29.90R
6HR MIN TEMP:  75; 6HR MAX TEMP:  79;

STORM LAKE     MOSUNNY   75  66  73 SE3       29.91R
$$

ABBREVIATIONS USED IN REMARKS
   TC - TEMPERATURE IN CELSIUS
  WCI - WIND CHILL INDEX
   HX - HEAT INDEX
  VSB - VISIBILITY





USA.gov is the U.S. government's official web portal to all federal, state and local government web resources and services.